Time,TemperatureF,DewpointF,PressureIn,WindDirection,WindDirectionDegrees,WindSpeedMPH,WindSpeedGustMPH,Humidity,HourlyPrecipIn,Conditions,Clouds,dailyrainin,SoftwareType,DateUTC
2013-03-16 00:10:00,64.9,45.8,29.73,ESE,112,3.7,-999.0,50,-99.99,,,0.00,Acu-Link.com,2013-03-16 05:10:00,
2013-03-16 00:25:00,64.9,45.8,29.72,ESE,112,4.2,-999.0,50,-99.99,,,0.00,Acu-Link.com,2013-03-16 05:25:00,
2013-03-16 00:40:00,64.8,45.7,29.73,SSE,157,4.7,-999.0,50,-99.99,,,0.00,Acu-Link.com,2013-03-16 05:40:00,
2013-03-16 00:55:00,64.4,45.9,29.73,ESE,112,4.7,-999.0,51,-99.99,,,0.00,Acu-Link.com,2013-03-16 05:55:00,
2013-03-16 01:11:00,63.9,45.9,29.72,SSE,157,3.7,-999.0,52,-99.99,,,0.00,Acu-Link.com,2013-03-16 06:11:00,
2013-03-16 01:26:00,63.7,46.2,29.73,SE,135,2.7,-999.0,53,-99.99,,,0.00,Acu-Link.com,2013-03-16 06:26:00,
2013-03-16 02:11:00,62.4,47.0,29.73,SW,225,6.8,-999.0,57,-99.99,,,0.00,Acu-Link.com,2013-03-16 07:11:00,
2013-03-16 02:26:00,62.4,47.4,29.72,ESE,112,3.7,-999.0,58,-99.99,,,0.00,Acu-Link.com,2013-03-16 07:26:00,
2013-03-16 02:41:00,62.1,47.6,29.72,SE,135,3.2,-999.0,59,-99.99,,,0.00,Acu-Link.com,2013-03-16 07:41:00,
2013-03-16 02:56:00,61.9,47.9,29.71,SSE,157,5.8,-999.0,60,-99.99,,,0.00,Acu-Link.com,2013-03-16 07:56:00,
2013-03-16 03:27:00,61.9,48.3,29.71,SE,135,3.2,-999.0,61,-99.99,,,0.00,Acu-Link.com,2013-03-16 08:27:00,
2013-03-16 03:42:00,61.5,48.4,29.70,SSE,157,4.2,-999.0,62,-99.99,,,0.00,Acu-Link.com,2013-03-16 08:42:00,
2013-03-16 03:57:00,61.5,48.4,29.71,NNE,22,2.7,-999.0,62,-99.99,,,0.00,Acu-Link.com,2013-03-16 08:57:00,
2013-03-16 04:12:00,61.5,48.4,29.71,SSE,157,3.7,-999.0,62,-99.99,,,0.00,Acu-Link.com,2013-03-16 09:12:00,
2013-03-16 04:27:00,61.3,48.6,29.70,SSE,157,3.7,-999.0,63,-99.99,,,0.00,Acu-Link.com,2013-03-16 09:27:00,
2013-03-16 04:42:00,61.0,49.1,29.71,SSE,157,2.7,-999.0,65,-99.99,,,0.00,Acu-Link.com,2013-03-16 09:42:00,
2013-03-16 04:57:00,60.8,49.0,29.71,SE,135,4.2,-999.0,65,-99.99,,,0.00,Acu-Link.com,2013-03-16 09:57:00,
2013-03-16 05:12:00,60.6,49.6,29.71,South,180,4.2,-999.0,67,-99.99,,,0.00,Acu-Link.com,2013-03-16 10:12:00,
2013-03-16 05:27:00,60.1,49.9,29.71,SE,135,3.7,-999.0,69,-99.99,,,0.00,Acu-Link.com,2013-03-16 10:27:00,
2013-03-16 05:43:00,59.7,49.5,29.72,SSE,157,4.2,-999.0,69,-99.99,,,0.00,Acu-Link.com,2013-03-16 10:43:00,
2013-03-16 05:58:00,59.7,49.9,29.72,SE,135,6.3,-999.0,70,-99.99,,,0.00,Acu-Link.com,2013-03-16 10:58:00,
2013-03-16 06:13:00,59.2,49.8,29.73,SE,135,3.7,-999.0,71,-99.99,,,0.00,Acu-Link.com,2013-03-16 11:13:00,
2013-03-16 06:28:00,58.8,49.4,29.72,SSE,157,6.8,-999.0,71,-99.99,,,0.00,Acu-Link.com,2013-03-16 11:28:00,
2013-03-16 06:43:00,58.6,50.0,29.73,South,180,3.2,-999.0,73,-99.99,,,0.00,Acu-Link.com,2013-03-16 11:43:00,
2013-03-16 06:58:00,58.5,49.9,29.73,SE,135,4.7,-999.0,73,-99.99,,,0.00,Acu-Link.com,2013-03-16 11:58:00,
2013-03-16 07:13:00,58.3,49.7,29.75,South,180,6.8,-999.0,73,-99.99,,,0.00,Acu-Link.com,2013-03-16 12:13:00,
2013-03-16 07:28:00,58.1,49.9,29.75,SE,135,4.2,-999.0,74,-99.99,,,0.00,Acu-Link.com,2013-03-16 12:28:00,
2013-03-16 07:43:00,58.1,49.5,29.75,South,180,5.3,-999.0,73,-99.99,,,0.00,Acu-Link.com,2013-03-16 12:43:00,
2013-03-16 07:58:00,58.3,49.7,29.75,South,180,4.7,-999.0,73,-99.99,,,0.00,Acu-Link.com,2013-03-16 12:58:00,
2013-03-16 08:14:00,59.0,49.6,29.75,SE,135,3.2,-999.0,71,-99.99,,,0.00,Acu-Link.com,2013-03-16 13:14:00,
2013-03-16 08:29:00,59.9,49.3,29.75,ESE,112,8.9,-999.0,68,-99.99,,,0.00,Acu-Link.com,2013-03-16 13:29:00,
2013-03-16 08:44:00,61.0,49.1,29.76,SE,135,4.2,-999.0,65,-99.99,,,0.00,Acu-Link.com,2013-03-16 13:44:00,
2013-03-16 08:59:00,62.4,48.8,29.75,East,90,4.2,-999.0,61,-99.99,,,0.00,Acu-Link.com,2013-03-16 13:59:00,
2013-03-16 09:14:00,64.0,48.9,29.76,SE,135,3.7,-999.0,58,-99.99,,,0.00,Acu-Link.com,2013-03-16 14:14:00,
2013-03-16 09:29:00,65.5,49.9,29.76,SSE,157,3.2,-999.0,57,-99.99,,,0.00,Acu-Link.com,2013-03-16 14:29:00,
2013-03-16 09:44:00,66.4,49.7,29.77,SE,135,3.7,-999.0,55,-99.99,,,0.00,Acu-Link.com,2013-03-16 14:44:00,
2013-03-16 09:59:00,67.8,50.5,29.77,East,90,2.7,-999.0,54,-99.99,,,0.00,Acu-Link.com,2013-03-16 14:59:00,
2013-03-16 10:15:00,68.0,50.2,29.78,East,90,4.2,-999.0,53,-99.99,,,0.00,Acu-Link.com,2013-03-16 15:15:00,
2013-03-16 10:30:00,69.3,50.4,29.77,NNE,22,5.8,-999.0,51,-99.99,,,0.00,Acu-Link.com,2013-03-16 15:30:00,
2013-03-16 10:45:00,70.0,51.6,29.77,SE,135,5.8,-999.0,52,-99.99,,,0.00,Acu-Link.com,2013-03-16 15:45:00,
2013-03-16 11:00:00,70.5,52.0,29.77,ESE,112,3.7,-999.0,52,-99.99,,,0.00,Acu-Link.com,2013-03-16 16:00:00,
2013-03-16 11:15:00,70.7,52.2,29.77,East,90,5.3,-999.0,52,-99.99,,,0.00,Acu-Link.com,2013-03-16 16:15:00,
2013-03-16 11:30:00,71.6,52.5,29.76,ESE,112,5.8,-999.0,51,-99.99,,,0.00,Acu-Link.com,2013-03-16 16:30:00,
2013-03-16 11:45:00,72.1,52.4,29.75,SE,135,7.3,-999.0,50,-99.99,,,0.00,Acu-Link.com,2013-03-16 16:45:00,
2013-03-16 12:01:00,74.1,53.1,29.75,SW,225,4.2,-999.0,48,-99.99,,,0.00,Acu-Link.com,2013-03-16 17:01:00,
2013-03-16 12:16:00,73.8,52.9,29.75,NNE,22,3.7,-999.0,48,-99.99,,,0.00,Acu-Link.com,2013-03-16 17:16:00,
2013-03-16 12:31:00,74.8,53.8,29.74,East,90,5.3,-999.0,48,-99.99,,,0.00,Acu-Link.com,2013-03-16 17:31:00,
2013-03-16 13:01:00,75.4,53.8,29.73,East,90,2.7,-999.0,47,-99.99,,,0.00,Acu-Link.com,2013-03-16 18:01:00,
2013-03-16 13:31:00,74.8,53.2,29.72,SE,135,6.3,-999.0,47,-99.99,,,0.00,Acu-Link.com,2013-03-16 18:31:00,
2013-03-16 14:01:00,76.6,53.7,29.72,West,270,5.8,-999.0,45,-99.99,,,0.00,Acu-Link.com,2013-03-16 19:01:00,
2013-03-16 14:17:00,76.3,53.4,29.70,SSE,157,6.3,-999.0,45,-99.99,,,0.00,Acu-Link.com,2013-03-16 19:17:00,
2013-03-16 14:47:00,78.4,53.4,29.68,South,180,4.2,-999.0,42,-99.99,,,0.00,Acu-Link.com,2013-03-16 19:47:00,
2013-03-16 15:02:00,78.6,53.6,29.69,NE,45,2.2,-999.0,42,-99.99,,,0.00,Acu-Link.com,2013-03-16 20:02:00,
2013-03-16 15:17:00,77.9,53.6,29.68,SSE,157,5.3,-999.0,43,-99.99,,,0.00,Acu-Link.com,2013-03-16 20:17:00,
2013-03-16 15:32:00,77.5,53.2,29.67,SSE,157,6.8,-999.0,43,-99.99,,,0.00,Acu-Link.com,2013-03-16 20:32:00,
2013-03-16 15:47:00,76.8,53.2,29.67,NNW,337,3.7,-999.0,44,-99.99,,,0.00,Acu-Link.com,2013-03-16 20:47:00,
2013-03-16 16:02:00,77.0,53.4,29.67,ESE,112,4.2,-999.0,44,-99.99,,,0.00,Acu-Link.com,2013-03-16 21:02:00,
2013-03-16 16:17:00,77.2,53.0,29.66,NNE,22,4.2,-999.0,43,-99.99,,,0.00,Acu-Link.com,2013-03-16 21:17:00,
2013-03-16 16:33:00,77.0,53.4,29.66,SSE,157,4.7,-999.0,44,-99.99,,,0.00,Acu-Link.com,2013-03-16 21:33:00,
2013-03-16 16:48:00,77.7,53.4,29.66,South,180,3.2,-999.0,43,-99.99,,,0.00,Acu-Link.com,2013-03-16 21:48:00,
2013-03-16 17:03:00,77.2,53.6,29.66,WNW,292,2.7,-999.0,44,-99.99,,,0.00,Acu-Link.com,2013-03-16 22:03:00,
2013-03-16 17:18:00,76.3,52.8,29.66,SE,135,3.7,-999.0,44,-99.99,,,0.00,Acu-Link.com,2013-03-16 22:18:00,
2013-03-16 17:33:00,76.1,53.8,29.65,South,180,3.7,-999.0,46,-99.99,,,0.00,Acu-Link.com,2013-03-16 22:33:00,
2013-03-16 17:48:00,75.7,53.4,29.65,ESE,112,6.8,-999.0,46,-99.99,,,0.00,Acu-Link.com,2013-03-16 22:48:00,
2013-03-16 18:03:00,74.7,53.7,29.65,SSE,157,5.8,-999.0,48,-99.99,,,0.00,Acu-Link.com,2013-03-16 23:03:00,
2013-03-16 18:18:00,73.8,53.4,29.66,SE,135,3.7,-999.0,49,-99.99,,,0.00,Acu-Link.com,2013-03-16 23:18:00,
2013-03-16 18:33:00,73.0,53.2,29.65,ESE,112,3.7,-999.0,50,-99.99,,,0.00,Acu-Link.com,2013-03-16 23:33:00,
2013-03-16 18:49:00,72.3,53.1,29.65,SSE,157,1.7,-999.0,51,-99.99,,,0.00,Acu-Link.com,2013-03-16 23:49:00,
2013-03-16 19:04:00,71.6,53.6,29.66,SSE,157,3.2,-999.0,53,-99.99,,,0.00,Acu-Link.com,2013-03-17 00:04:00,
2013-03-16 19:19:00,70.5,53.5,29.67,SSW,202,1.7,-999.0,55,-99.99,,,0.00,Acu-Link.com,2013-03-17 00:19:00,
2013-03-16 19:34:00,69.6,53.2,29.66,SE,135,1.7,-999.0,56,-99.99,,,0.00,Acu-Link.com,2013-03-17 00:34:00,
2013-03-16 19:49:00,67.8,52.9,29.67,SE,135,0.0,-999.0,59,-99.99,,,0.00,Acu-Link.com,2013-03-17 00:49:00,
2013-03-16 20:04:00,66.7,53.3,29.67,ESE,112,0.0,-999.0,62,-99.99,,,0.00,Acu-Link.com,2013-03-17 01:04:00,
2013-03-16 20:20:00,64.9,52.8,29.68,ESE,112,0.0,-999.0,65,-99.99,,,0.00,Acu-Link.com,2013-03-17 01:20:00,
2013-03-16 20:35:00,63.9,52.7,29.67,ESE,112,0.0,-999.0,67,-99.99,,,0.00,Acu-Link.com,2013-03-17 01:35:00,
2013-03-16 20:50:00,62.8,52.1,29.68,ESE,112,0.0,-999.0,68,-99.99,,,0.00,Acu-Link.com,2013-03-17 01:50:00,
2013-03-16 21:05:00,61.9,52.4,29.69,ESE,112,0.0,-999.0,71,-99.99,,,0.00,Acu-Link.com,2013-03-17 02:05:00,
2013-03-16 21:20:00,60.4,51.3,29.69,ESE,112,0.0,-999.0,72,-99.99,,,0.00,Acu-Link.com,2013-03-17 02:20:00,
2013-03-16 21:35:00,59.2,51.6,29.69,ESE,112,0.0,-999.0,76,-99.99,,,0.00,Acu-Link.com,2013-03-17 02:35:00,
2013-03-16 21:50:00,57.9,51.1,29.70,ESE,112,0.0,-999.0,78,-99.99,,,0.00,Acu-Link.com,2013-03-17 02:50:00,
2013-03-16 22:05:00,57.2,51.4,29.70,ESE,112,0.0,-999.0,81,-99.99,,,0.00,Acu-Link.com,2013-03-17 03:05:00,
2013-03-16 22:20:00,56.3,50.9,29.70,ESE,112,0.0,-999.0,82,-99.99,,,0.00,Acu-Link.com,2013-03-17 03:20:00,
2013-03-16 22:36:00,55.6,50.5,29.70,ESE,112,0.0,-999.0,83,-99.99,,,0.00,Acu-Link.com,2013-03-17 03:36:00,
2013-03-16 22:51:00,55.2,51.1,29.71,ESE,112,0.0,-999.0,86,-99.99,,,0.00,Acu-Link.com,2013-03-17 03:51:00,
2013-03-16 23:36:00,53.4,49.6,29.71,ESE,112,0.0,-999.0,87,-99.99,,,0.00,Acu-Link.com,2013-03-17 04:36:00,
2013-03-16 23:51:00,52.7,48.6,29.71,ESE,112,0.0,-999.0,86,-99.99,,,0.00,Acu-Link.com,2013-03-17 04:51:00,